OEFVS EDLP-EBAW

Flight info

Callsign OEFVS
Flight time 0h 43m
Altitude 28000
Route TINSA1X/06 TINSA DCT NETEX/N0363F240 Z282 DIBIR/N0337F180 L179 SONDI DCT WOODY
Aircraft P180/L-SBDFGM3RWXY/LB1

Departure

Time 2026-04-30 18:39
Airport Paderborn Lippstadt Airport (EDLP)

Arrival

Time 2026-04-30 19:22
Airport Antwerp International Airport (Deurne) (EBAW)
Time Latitude Longitude Altitude Speed Heading
2026-04-30 18:20 51.60980 8.61703 702 ft 0 kts 226°
2026-04-30 18:35 51.60977 8.61695 702 ft 2 kts 241°
2026-04-30 18:35 51.60988 8.61654 698 ft 6 kts 321°
2026-04-30 18:36 51.61036 8.61585 700 ft 8 kts 278°
2026-04-30 18:36 51.61007 8.61493 703 ft 11 kts 237°
2026-04-30 18:36 51.60967 8.61270 705 ft 14 kts 282°
2026-04-30 18:37 51.60984 8.61138 702 ft 10 kts 281°
2026-04-30 18:37 51.61003 8.61054 702 ft 7 kts 306°
2026-04-30 18:37 51.61054 8.61017 703 ft 9 kts
2026-04-30 18:37 51.61133 8.61072 698 ft 12 kts 25°
2026-04-30 18:38 51.61187 8.61113 703 ft 8 kts 28°
2026-04-30 18:38 51.61276 8.61306 705 ft 53 kts 57°
2026-04-30 18:38 51.61600 8.62102 720 ft 108 kts 60°
2026-04-30 18:38 51.62034 8.63156 1152 ft 119 kts 59°
2026-04-30 18:39 51.62491 8.64430 1654 ft 144 kts 66°
2026-04-30 18:39 51.63001 8.65916 2261 ft 157 kts 65°
2026-04-30 18:39 51.63579 8.67477 2988 ft 168 kts 66°
2026-04-30 18:39 51.64186 8.69097 3813 ft 170 kts 66°
2026-04-30 18:40 51.64821 8.70733 4607 ft 174 kts 65°
2026-04-30 18:40 51.65490 8.72382 5390 ft 179 kts 59°
2026-04-30 18:40 51.66535 8.73558 6169 ft 193 kts 25°
2026-04-30 18:40 51.67883 8.73718 6936 ft 205 kts 354°
2026-04-30 18:41 51.69215 8.72608 7299 ft 235 kts 319°
2026-04-30 18:41 51.69959 8.70204 7750 ft 245 kts 283°
2026-04-30 18:41 51.70258 8.67505 8340 ft 246 kts 279°
2026-04-30 18:41 51.70443 8.64757 8874 ft 247 kts 265°
2026-04-30 18:42 51.69821 8.62244 9404 ft 243 kts 229°
2026-04-30 18:42 51.67607 8.58091 10397 ft 249 kts 232°
2026-04-30 18:42 51.66806 8.55587 10837 ft 252 kts 243°
2026-04-30 18:45 51.58544 8.29388 14755 ft 272 kts 241°
2026-04-30 18:45 51.57676 8.26664 15067 ft 274 kts 241°
2026-04-30 18:45 51.56806 8.23927 15374 ft 276 kts 241°
2026-04-30 18:46 51.55930 8.21176 15681 ft 277 kts 241°
2026-04-30 18:46 51.55048 8.18418 15975 ft 278 kts 240°
2026-04-30 18:46 51.54163 8.15647 16292 ft 280 kts 240°
2026-04-30 18:46 51.53276 8.12866 16649 ft 281 kts 240°
2026-04-30 18:47 51.52380 8.10069 16994 ft 283 kts 240°
2026-04-30 18:47 51.51531 8.07209 17301 ft 286 kts 250°
2026-04-30 18:47 51.51153 8.04062 17612 ft 288 kts 263°
2026-04-30 18:47 51.50906 8.00858 17945 ft 289 kts 263°
2026-04-30 18:48 51.50614 7.97657 18243 ft 291 kts 261°
2026-04-30 18:48 51.50280 7.94443 18534 ft 293 kts 261°
2026-04-30 18:48 51.49958 7.91209 18809 ft 294 kts 261°
2026-04-30 18:48 51.49650 7.87966 19083 ft 295 kts 261°
2026-04-30 18:49 51.49337 7.84713 19347 ft 295 kts 261°
2026-04-30 18:49 51.49014 7.81451 19605 ft 296 kts 261°
2026-04-30 18:49 51.48689 7.78176 19875 ft 297 kts 261°
2026-04-30 18:49 51.48367 7.74893 20131 ft 298 kts 261°
2026-04-30 18:50 51.48043 7.71605 20380 ft 299 kts 261°
2026-04-30 18:50 51.47718 7.68312 20651 ft 298 kts 260°
2026-04-30 18:50 51.47391 7.65036 20944 ft 298 kts 260°
2026-04-30 18:50 51.47063 7.61754 21203 ft 299 kts 260°
2026-04-30 18:51 51.46733 7.58458 21475 ft 299 kts 260°
2026-04-30 18:51 51.46402 7.55159 21748 ft 300 kts 260°
2026-04-30 18:51 51.46070 7.51845 22023 ft 301 kts 260°
2026-04-30 18:51 51.45733 7.48535 22301 ft 302 kts 260°
2026-04-30 18:52 51.45398 7.45209 22571 ft 303 kts 260°
2026-04-30 18:52 51.45061 7.41870 22853 ft 303 kts 260°
2026-04-30 18:52 51.44720 7.38528 23140 ft 304 kts 260°
2026-04-30 18:52 51.44376 7.35178 23431 ft 305 kts 260°
2026-04-30 18:53 51.44031 7.31814 23725 ft 306 kts 260°
2026-04-30 18:53 51.43687 7.28446 24001 ft 307 kts 260°
2026-04-30 18:53 51.43339 7.25067 24259 ft 308 kts 260°
2026-04-30 18:53 51.42982 7.21654 24336 ft 315 kts 260°
2026-04-30 18:54 51.42620 7.18129 24334 ft 324 kts 260°
2026-04-30 18:54 51.42253 7.14578 24338 ft 331 kts 260°
2026-04-30 18:54 51.41867 7.10906 24337 ft 337 kts 259°
2026-04-30 18:54 51.41478 7.07189 24330 ft 341 kts 260°
2026-04-30 18:55 51.41083 7.03419 24335 ft 345 kts 259°
2026-04-30 18:55 51.40275 6.95763 24332 ft 355 kts 259°
2026-04-30 18:55 51.39855 6.91822 24333 ft 362 kts 259°
2026-04-30 18:56 51.38995 6.83739 24327 ft 372 kts 259°
2026-04-30 18:56 51.38558 6.79631 24327 ft 376 kts 259°
2026-04-30 18:56 51.38111 6.75486 24328 ft 378 kts 259°
2026-04-30 18:57 51.37210 6.67140 24325 ft 382 kts 260°
2026-04-30 18:57 51.36754 6.62935 24326 ft 384 kts 259°
2026-04-30 18:57 51.36293 6.58718 24325 ft 385 kts 259°
2026-04-30 18:58 51.35373 6.50319 24319 ft 386 kts 259°
2026-04-30 18:58 51.34903 6.46025 24316 ft 387 kts 259°
2026-04-30 18:58 51.34438 6.41837 24318 ft 387 kts 259°
2026-04-30 18:59 51.33494 6.33345 24318 ft 388 kts 259°
2026-04-30 19:00 51.30917 6.21251 24305 ft 386 kts 237°
2026-04-30 19:00 51.29475 6.17641 24306 ft 385 kts 236°
2026-04-30 19:00 51.26959 6.10091 24298 ft 385 kts 244°
2026-04-30 19:01 51.24512 6.02499 24286 ft 384 kts 239°
2026-04-30 19:01 51.23249 5.98740 24286 ft 384 kts 242°
2026-04-30 19:02 51.22307 5.90437 24284 ft 386 kts 270°
2026-04-30 19:02 51.22051 5.81895 24287 ft 386 kts 265°
2026-04-30 19:03 51.21846 5.73347 24284 ft 384 kts 269°
2026-04-30 19:03 51.21593 5.64828 23930 ft 391 kts 266°
2026-04-30 19:04 51.21336 5.55949 22480 ft 410 kts 268°
2026-04-30 19:04 51.21075 5.46807 21133 ft 411 kts 265°
2026-04-30 19:05 51.20787 5.37816 20057 ft 400 kts 267°
2026-04-30 19:05 51.20529 5.29037 19022 ft 393 kts 265°
2026-04-30 19:06 51.20238 5.20385 17960 ft 387 kts 265°
2026-04-30 19:06 51.20114 5.16129 17450 ft 382 kts 265°
2026-04-30 19:06 51.19825 5.07807 16454 ft 376 kts 265°
2026-04-30 19:07 51.19551 4.99491 15214 ft 376 kts 265°
2026-04-30 19:07 51.19414 4.95352 14708 ft 371 kts 265°
2026-04-30 19:08 51.19169 4.88559 13878 ft 366 kts 265°
2026-04-30 19:08 51.18889 4.80509 12907 ft 362 kts 265°
2026-04-30 19:08 51.18744 4.76506 12431 ft 360 kts 265°
2026-04-30 19:09 51.18454 4.68581 11471 ft 357 kts 265°
2026-04-30 19:09 51.18311 4.64636 10995 ft 356 kts 264°
2026-04-30 19:09 51.18163 4.60708 10532 ft 354 kts 264°
2026-04-30 19:10 51.17865 4.52910 9573 ft 350 kts 264°
2026-04-30 19:10 51.17597 4.45536 8699 ft 301 kts 263°
2026-04-30 19:11 51.17465 4.42372 8324 ft 273 kts 263°
2026-04-30 19:11 51.17232 4.36535 7634 ft 259 kts 263°
2026-04-30 19:11 51.17120 4.33676 7293 ft 258 kts 263°
2026-04-30 19:12 51.17008 4.30812 6950 ft 259 kts 263°
2026-04-30 19:12 51.16887 4.27957 6608 ft 257 kts 262°
2026-04-30 19:12 51.16771 4.25121 6250 ft 256 kts 263°
2026-04-30 19:13 51.16563 4.19519 5580 ft 251 kts 264°
2026-04-30 19:13 51.17726 4.14181 4797 ft 264 kts 298°
2026-04-30 19:13 51.19023 4.12173 4378 ft 259 kts 333°
2026-04-30 19:14 51.20731 4.11684 4048 ft 245 kts 11°
2026-04-30 19:14 51.22269 4.12411 3761 ft 218 kts 35°
2026-04-30 19:14 51.23380 4.13816 3497 ft 195 kts 51°
2026-04-30 19:14 51.24330 4.15200 3253 ft 180 kts 50°
2026-04-30 19:15 51.24990 4.16715 3023 ft 150 kts 78°
2026-04-30 19:15 51.25092 4.19279 2993 ft 107 kts 108°
2026-04-30 19:15 51.24840 4.20404 3000 ft 109 kts 115°
2026-04-30 19:16 51.24589 4.21526 2991 ft 107 kts 113°
2026-04-30 19:16 51.24330 4.22643 2987 ft 107 kts 112°
2026-04-30 19:16 51.23822 4.24908 2992 ft 107 kts 114°
2026-04-30 19:17 51.23571 4.26020 2977 ft 106 kts 114°
2026-04-30 19:17 51.23072 4.28219 2673 ft 100 kts 112°
2026-04-30 19:17 51.22839 4.29290 2517 ft 103 kts 112°
2026-04-30 19:18 51.22437 4.31055 2243 ft 99 kts 112°
2026-04-30 19:18 51.22093 4.32588 2019 ft 116 kts 111°
2026-04-30 19:18 51.21828 4.33779 1833 ft 115 kts 111°
2026-04-30 19:19 51.21558 4.34983 1668 ft 116 kts 111°
2026-04-30 19:19 51.21277 4.36212 1470 ft 120 kts 111°
2026-04-30 19:19 51.20715 4.38692 1100 ft 115 kts 108°
2026-04-30 19:20 51.20453 4.39848 915 ft 109 kts 108°
2026-04-30 19:20 51.20193 4.40987 732 ft 108 kts 108°
2026-04-30 19:20 51.19670 4.43345 437 ft 116 kts 107°
2026-04-30 19:21 51.19425 4.44448 250 ft 98 kts 111°
2026-04-30 19:21 51.19007 4.46276 38 ft 63 kts 110°
2026-04-30 19:22 51.18866 4.46900 36 ft 25 kts 110°
2026-04-30 19:22 51.18715 4.47161 33 ft 16 kts 231°
2026-04-30 19:23 51.18576 4.46721 33 ft 13 kts 270°
2026-04-30 19:24 51.18618 4.46384 33 ft 16 kts 284°
2026-04-30 19:24 51.18647 4.46199 33 ft 17 kts 285°
2026-04-30 19:24 51.18711 4.45809 33 ft 19 kts 284°
2026-04-30 19:25 51.18783 4.45427 33 ft 8 kts 328°
2026-04-30 19:26 51.18789 4.45420 33 ft 0 kts 328°